����,���ϕ���(m/s),���ϕ���,�ő�u�ԕ���(m/s),�ő啗��������,�C��(��),���x(%),10���Ԉړ��ώZ�J��(mm),1���Ԉړ��ώZ�J��(mm),���J��(mm),�݌v�J��(mm)
2020-03-30T00:00:00+09:00,1.4,�k,3.5,�k�k��,6.5,71.7,0,0,1.5,18.5
2020-03-30T00:01:00+09:00,1.4,�k,3.5,�k�k��,6.5,71.3,0,0,0,18.5
2020-03-30T00:02:00+09:00,1.5,�k,3.5,�k�k��,6.6,70.9,0,0,0,18.5
2020-03-30T00:03:00+09:00,1.5,�k,3.5,�k�k��,6.6,71.7,0,0,0,18.5
2020-03-30T00:04:00+09:00,1.5,�k,3.5,�k�k��,6.5,72,0,0,0,18.5
2020-03-30T00:05:00+09:00,1.5,�k,3.5,�k�k��,6.5,72.2,0,0,0,18.5
2020-03-30T00:06:00+09:00,1.5,�k,3.5,�k�k��,6.4,71.8,0,0,0,18.5
2020-03-30T00:07:00+09:00,1.4,�k,3.5,�k�k��,6.5,71.7,0,0,0,18.5
2020-03-30T00:08:00+09:00,1.4,�k,3.5,�k�k��,6.5,71.7,0,0,0,18.5
2020-03-30T00:09:00+09:00,1.3,�k,2.6,�k,6.4,72.3,0,0,0,18.5
2020-03-30T00:10:00+09:00,1.3,�k,2.8,�k�k��,6.3,73.2,0,0,0,18.5
2020-03-30T00:11:00+09:00,1.4,�k,2.8,�k�k��,6.3,73.8,0,0,0,18.5
2020-03-30T00:12:00+09:00,1.4,�k,2.8,�k�k��,6.3,74,0,0,0,18.5
2020-03-30T00:13:00+09:00,1.4,�k,2.8,�k�k��,6.3,74.2,0,0,0,18.5
2020-03-30T00:14:00+09:00,1.5,�k,2.8,�k�k��,6.3,74,0,0,0,18.5
2020-03-30T00:15:00+09:00,1.6,�k,3.4,�k�k��,6.4,73.1,0,0,0,18.5
2020-03-30T00:16:00+09:00,1.7,�k,3.4,�k�k��,6.6,69.9,0,0,0,18.5
2020-03-30T00:17:00+09:00,1.8,�k,3.4,�k�k��,6.5,70.2,0,0,0,18.5
2020-03-30T00:18:00+09:00,1.8,�k,3.4,�k�k��,6.4,71.6,0,0,0,18.5
2020-03-30T00:19:00+09:00,1.8,�k,3.4,�k�k��,6.4,72.3,0,0,0,18.5
2020-03-30T00:20:00+09:00,1.8,�k,3.4,�k�k��,6.4,72.6,0,0,0,18.5
2020-03-30T00:21:00+09:00,1.9,�k,3.4,�k�k��,6.3,73,0,0,0,18.5
2020-03-30T00:22:00+09:00,1.9,�k,3.4,�k�k��,6.3,73.5,0,0,0,18.5
2020-03-30T00:23:00+09:00,1.9,�k,3.4,�k�k��,6.3,73.6,0,0,0,18.5
2020-03-30T00:24:00+09:00,1.9,�k,3.4,�k�k��,6.4,73.4,0,0,0,18.5
2020-03-30T00:25:00+09:00,1.9,�k,3.3,�k�k��,6.4,72.9,0,0,0,18.5
2020-03-30T00:26:00+09:00,1.8,�k,3.2,�k,6.3,72.8,0,0,0,18.5
2020-03-30T00:27:00+09:00,1.7,�k,3.2,�k,6.3,73.2,0,0,0,18.5
2020-03-30T00:28:00+09:00,1.7,�k,3.2,�k,6.3,73.6,0,0,0,18.5
2020-03-30T00:29:00+09:00,1.8,�k,3.2,�k,6.3,73.5,0,0,0,18.5
2020-03-30T00:30:00+09:00,1.8,�k,3.2,�k,6.2,73.9,0,0,0,18.5
2020-03-30T00:31:00+09:00,1.7,�k,3.2,�k,6.2,74.5,0,0,0,18.5
2020-03-30T00:32:00+09:00,1.7,�k,3.2,�k,6.2,74.5,0,0,0,18.5
2020-03-30T00:33:00+09:00,1.6,�k,3.2,�k,6.3,75.1,0,0,0,18.5
2020-03-30T00:34:00+09:00,1.6,�k,2.7,�k,6.3,75.1,0,0,0,18.5
2020-03-30T00:35:00+09:00,1.5,�k,2.7,�k,6.2,74.8,0,0,0,18.5
2020-03-30T00:36:00+09:00,1.6,�k,2.7,�k,6.2,74.8,0,0,0,18.5
2020-03-30T00:37:00+09:00,1.6,�k,2.7,�k,6.2,74.9,0,0,0,18.5
2020-03-30T00:38:00+09:00,1.6,�k,2.6,�k,6.3,73.9,0,0,0,18.5
2020-03-30T00:39:00+09:00,1.5,�k,2.4,�k,6.2,74.5,0,0,0,18.5
2020-03-30T00:40:00+09:00,1.4,�k,2.4,�k,6.2,74.6,0,0,0,18.5
2020-03-30T00:41:00+09:00,1.3,�k,2.4,�k,6.2,74.6,0,0,0,18.5
2020-03-30T00:42:00+09:00,1.3,�k,2.4,�k,6.2,74.6,0,0,0,18.5
2020-03-30T00:43:00+09:00,1.4,�k,2.4,�k,6.3,73.9,0,0,0,18.5
2020-03-30T00:44:00+09:00,1.4,�k,2.4,�k,6.3,73.2,0,0,0,18.5
2020-03-30T00:45:00+09:00,1.3,�k,2.4,�k,6.4,73.1,0,0,0,18.5
2020-03-30T00:46:00+09:00,1.3,�k,2.4,�k,6.3,73.2,0,0,0,18.5
2020-03-30T00:47:00+09:00,1.2,�k,2.4,�k,6.3,73.5,0,0,0,18.5
2020-03-30T00:48:00+09:00,1.2,�k,2.4,�k,6.3,73.7,0,0,0,18.5
2020-03-30T00:49:00+09:00,1.1,�k,2.4,�k,6.4,73.3,0,0,0,18.5
2020-03-30T00:50:00+09:00,1,�k,2.4,�k,6.4,72.9,0,0,0,18.5
2020-03-30T00:51:00+09:00,1,�k,2.4,�k,6.3,73.7,0,0,0,18.5
2020-03-30T00:52:00+09:00,0.9,�k,2.4,�k,6.2,74.2,0,0,0,18.5
2020-03-30T00:53:00+09:00,0.8,�k,2.4,�k,6.3,74.3,0,0,0,18.5
2020-03-30T00:54:00+09:00,0.8,�k,2.4,�k,6.4,73.8,0,0,0,18.5
2020-03-30T00:55:00+09:00,0.8,�k,2.4,�k,6.3,73.5,0,0,0,18.5
2020-03-30T00:56:00+09:00,0.7,�k,2.1,�k,6.4,72,0,0,0,18.5
2020-03-30T00:57:00+09:00,0.8,�k,2.1,�k,6.2,73.3,0,0,0,18.5
2020-03-30T00:58:00+09:00,0.8,�k,2.1,�k,6.1,74.5,0,0,0,18.5
2020-03-30T00:59:00+09:00,0.9,�k�k��,2.1,�k,6.1,74.6,0,0,0,18.5
2020-03-30T01:00:00+09:00,0.9,�k�k��,2.1,�k,6.3,72.1,0,0,0,18.5
2020-03-30T01:01:00+09:00,0.9,�k�k��,2.1,�k,6.3,72.4,0,0,0,18.5
2020-03-30T01:02:00+09:00,1,�k�k��,2.1,�k,6.3,74.4,0,0,0,18.5
2020-03-30T01:03:00+09:00,1,�k�k��,2.1,�k,6.2,74.7,0,0,0,18.5
2020-03-30T01:04:00+09:00,1,�k�k��,2.1,�k,6.2,75,0,0,0,18.5
2020-03-30T01:05:00+09:00,1.1,�k�k��,2.1,�k,6.1,75.4,0,0,0,18.5
2020-03-30T01:06:00+09:00,1,�k�k��,2,�k,6.1,75.7,0,0,0,18.5
2020-03-30T01:07:00+09:00,1,�k�k��,2,�k,6.2,76.1,0,0,0,18.5
2020-03-30T01:08:00+09:00,1,�k�k��,2.5,�k�k��,6.2,76.6,0,0,0,18.5
2020-03-30T01:09:00+09:00,1.1,�k,2.9,�k�k��,6.1,76.8,0,0,0,18.5
2020-03-30T01:10:00+09:00,1.2,�k,2.9,�k�k��,6,77.2,0,0,0,18.5
2020-03-30T01:11:00+09:00,1.3,�k,2.9,�k�k��,6,77.9,0,0,0,18.5
2020-03-30T01:12:00+09:00,1.3,�k,2.9,�k�k��,6,77.8,0,0,0,18.5
2020-03-30T01:13:00+09:00,1.3,�k,2.9,�k�k��,6,77.9,0,0,0,18.5
2020-03-30T01:14:00+09:00,1.3,�k,2.9,�k�k��,6,78.4,0,0,0,18.5
2020-03-30T01:15:00+09:00,1.3,�k,2.9,�k�k��,6,78.2,0,0,0,18.5
2020-03-30T01:16:00+09:00,1.3,�k,2.9,�k�k��,6,78.4,0,0,0,18.5
2020-03-30T01:17:00+09:00,1.2,�k,2.9,�k�k��,6,78.3,0,0,0,18.5
2020-03-30T01:18:00+09:00,1.2,�k,2.9,�k�k��,6,78.2,0,0,0,18.5
2020-03-30T01:19:00+09:00,1.1,�k,2.3,�k�k��,6,77.9,0,0,0,18.5
2020-03-30T01:20:00+09:00,1.1,�k,1.9,�k�k��,6,78,0,0,0,18.5
2020-03-30T01:21:00+09:00,1.1,�k,1.9,�k�k��,6.1,78.2,0,0,0,18.5
2020-03-30T01:22:00+09:00,1,�k,1.8,�k�k��,6,78.3,0,0,0,18.5
2020-03-30T01:23:00+09:00,1,�k,1.8,�k�k��,6,78.1,0,0,0,18.5
2020-03-30T01:24:00+09:00,0.9,�k,1.8,�k�k��,6.1,77.9,0,0,0,18.5
2020-03-30T01:25:00+09:00,0.9,�k,1.7,�k,6.1,77.3,0,0,0,18.5
2020-03-30T01:26:00+09:00,1,�k,2.2,�k,6,77.1,0,0,0,18.5
2020-03-30T01:27:00+09:00,1,�k,2.2,�k,6.1,77.5,0,0,0,18.5
2020-03-30T01:28:00+09:00,1.1,�k,2.2,�k,6.1,78,0,0,0,18.5
2020-03-30T01:29:00+09:00,1.1,�k,2.2,�k,6.1,77.6,0,0,0,18.5
2020-03-30T01:30:00+09:00,1.1,�k,2.2,�k,6.1,77.6,0,0,0,18.5
2020-03-30T01:31:00+09:00,1.1,�k,2.3,�k�k��,6,77.8,0,0,0,18.5
2020-03-30T01:32:00+09:00,1.2,�k�k��,2.3,�k�k��,6,78.1,0,0,0,18.5
2020-03-30T01:33:00+09:00,1.2,�k�k��,2.3,�k�k��,6,78.6,0,0,0,18.5
2020-03-30T01:34:00+09:00,1.2,�k�k��,2.3,�k�k��,6.1,78.8,0,0,0,18.5
2020-03-30T01:35:00+09:00,1.3,�k,2.3,�k�k��,6,78.7,0,0,0,18.5
2020-03-30T01:36:00+09:00,1.2,�k,2.3,�k�k��,6,78.4,0,0,0,18.5
2020-03-30T01:37:00+09:00,1.1,�k�k��,2.3,�k�k��,6,78.3,0,0,0,18.5
2020-03-30T01:38:00+09:00,1,�k�k��,2.3,�k�k��,5.9,78.5,0,0,0,18.5
2020-03-30T01:39:00+09:00,0.9,�k�k��,2.3,�k�k��,5.9,77.8,0,0,0,18.5
2020-03-30T01:40:00+09:00,0.9,�k�k��,2.3,�k�k��,5.9,77.8,0,0,0,18.5
2020-03-30T01:41:00+09:00,0.8,�k�k��,1.6,�k�k��,5.9,78.1,0,0,0,18.5
2020-03-30T01:42:00+09:00,0.7,�k�k��,1.6,�k�k��,5.9,78.5,0,0,0,18.5
2020-03-30T01:43:00+09:00,0.6,�k�k��,1.6,�k�k��,6,78.3,0,0,0,18.5
2020-03-30T01:44:00+09:00,0.6,�k�k��,1.6,�k�k��,6,77.6,0,0,0,18.5
2020-03-30T01:45:00+09:00,0.6,�k�k��,1.4,�k��,5.9,77.8,0,0,0,18.5
2020-03-30T01:46:00+09:00,0.6,�k��,1.4,�k��,6,78.2,0,0,0,18.5
2020-03-30T01:47:00+09:00,0.5,�k��,1,��,5.9,78.2,0,0,0,18.5
2020-03-30T01:48:00+09:00,0.5,�k��,1,��,5.9,78.4,0,0,0,18.5
2020-03-30T01:49:00+09:00,0.5,���k��,1,��,5.9,78.5,0,0,0,18.5
2020-03-30T01:50:00+09:00,0.5,���k��,1,��,5.9,78.3,0,0,0,18.5
2020-03-30T01:51:00+09:00,0.6,��,1,��,5.9,78.3,0,0,0,18.5
2020-03-30T01:52:00+09:00,0.6,��,1,��,5.9,78.2,0,0,0,18.5
2020-03-30T01:53:00+09:00,0.6,��,1,��,6,78,0,0,0,18.5
2020-03-30T01:54:00+09:00,0.6,��,1,��,6,78.1,0,0,0,18.5
2020-03-30T01:55:00+09:00,0.6,��,1,��,6,78,0,0,0,18.5
2020-03-30T01:56:00+09:00,0.7,��,1,��,6,77.7,0,0,0,18.5
2020-03-30T01:57:00+09:00,0.6,��,1,�k�k��,6.1,77.6,0,0,0,18.5
2020-03-30T01:58:00+09:00,0.5,���k��,1,�k�k��,6.2,78,0,0,0,18.5
2020-03-30T01:59:00+09:00,0.5,���k��,1,�k�k��,6.3,78,0,0,0,18.5
2020-03-30T02:00:00+09:00,0.5,�k��,1,�k�k��,6.2,77.4,0,0,0,18.5
2020-03-30T02:01:00+09:00,0.4,�k��,1,�k�k��,6.1,77.3,0,0,0,18.5
2020-03-30T02:02:00+09:00,0.3,�k��,1,�k�k��,6.1,77.7,0,0,0,18.5
2020-03-30T02:03:00+09:00,0.3,�k�k��,1,�k�k��,6.1,77.7,0,0,0,18.5
2020-03-30T02:04:00+09:00,0.3,�k�k��,1,�k�k��,6,77.6,0,0,0,18.5
2020-03-30T02:05:00+09:00,0.3,�k�k��,1,�k�k��,6,78,0,0,0,18.5
2020-03-30T02:06:00+09:00,0.3,�k�k��,1,�k�k��,6,78.4,0,0,0,18.5
2020-03-30T02:07:00+09:00,0.4,�k�k��,1.1,���k��,5.9,78.5,0,0,0,18.5
2020-03-30T02:08:00+09:00,0.4,�k��,1.1,���k��,5.9,78.8,0,0,0,18.5
2020-03-30T02:09:00+09:00,0.4,�k��,1.1,���k��,6,79.1,0,0,0,18.5
2020-03-30T02:10:00+09:00,0.5,�k��,1.1,���k��,6,79.4,0,0,0,18.5
2020-03-30T02:11:00+09:00,0.5,�k��,1.1,���k��,6,79.8,0,0,0,18.5
2020-03-30T02:12:00+09:00,0.6,�k��,1.1,���k��,6,79.2,0,0,0,18.5
2020-03-30T02:13:00+09:00,0.6,���k��,1.1,���k��,6,78.8,0,0,0,18.5
2020-03-30T02:14:00+09:00,0.7,���k��,1.1,���k��,5.9,79.4,0,0,0,18.5
2020-03-30T02:15:00+09:00,0.7,���k��,1.3,�k��,5.9,79.9,0,0,0,18.5
2020-03-30T02:16:00+09:00,0.7,���k��,1.3,�k��,5.9,79.5,0,0,0,18.5
2020-03-30T02:17:00+09:00,0.7,�k��,1.5,�k��,5.9,79.9,0,0,0,18.5
2020-03-30T02:18:00+09:00,0.8,�k��,2.1,���k��,5.9,79.2,0,0,0,18.5
2020-03-30T02:19:00+09:00,0.9,�k��,2.1,���k��,5.9,78.9,0,0,0,18.5
2020-03-30T02:20:00+09:00,0.9,�k��,2.1,���k��,5.9,79.1,0,0,0,18.5
2020-03-30T02:21:00+09:00,0.9,�k��,2.1,���k��,5.9,79.4,0,0,0,18.5
2020-03-30T02:22:00+09:00,1,�k��,2.1,���k��,5.9,79.5,0,0,0,18.5
2020-03-30T02:23:00+09:00,1,�k��,2.1,���k��,5.9,79.3,0,0,0,18.5
2020-03-30T02:24:00+09:00,1,�k��,2.1,���k��,5.9,79.2,0,0,0,18.5
2020-03-30T02:25:00+09:00,1,�k��,2.1,���k��,5.9,79.5,0,0,0,18.5
2020-03-30T02:26:00+09:00,1,�k��,2.1,���k��,5.9,79.3,0,0,0,18.5
2020-03-30T02:27:00+09:00,1.1,�k��,2.1,���k��,5.8,79.5,0,0,0,18.5
2020-03-30T02:28:00+09:00,1,�k��,1.6,���k��,5.8,80.1,0,0,0,18.5
2020-03-30T02:29:00+09:00,1,�k��,1.6,���k��,5.8,80.2,0,0,0,18.5
2020-03-30T02:30:00+09:00,1,�k��,1.6,���k��,5.8,80.5,0,0,0,18.5
2020-03-30T02:31:00+09:00,1,�k��,1.6,���k��,5.8,80.4,0,0,0,18.5
2020-03-30T02:32:00+09:00,1,�k��,1.6,���k��,5.7,80.5,0,0,0,18.5
2020-03-30T02:33:00+09:00,1,�k��,1.6,���k��,5.8,80.6,0,0,0,18.5
2020-03-30T02:34:00+09:00,1,�k��,1.6,���k��,5.8,80.5,0,0,0,18.5
2020-03-30T02:35:00+09:00,0.9,�k��,1.6,���k��,5.8,80.5,0,0,0,18.5
2020-03-30T02:36:00+09:00,0.9,�k��,1.4,�k��,5.8,80.8,0,0,0,18.5
2020-03-30T02:37:00+09:00,0.8,�k��,1.5,���k��,5.8,80.7,0,0,0,18.5
2020-03-30T02:38:00+09:00,0.9,�k��,1.9,���k��,5.8,80.7,0,0,0,18.5
2020-03-30T02:39:00+09:00,0.9,�k��,1.9,���k��,5.8,80.9,0,0,0,18.5
2020-03-30T02:40:00+09:00,1,�k��,1.9,���k��,5.8,80.9,0,0,0,18.5
2020-03-30T02:41:00+09:00,1,�k��,1.9,���k��,5.8,80.4,0,0,0,18.5
2020-03-30T02:42:00+09:00,0.9,�k��,1.9,���k��,5.8,80.1,0,0,0,18.5
2020-03-30T02:43:00+09:00,0.9,�k��,1.9,���k��,5.8,79.6,0,0,0,18.5
2020-03-30T02:44:00+09:00,0.9,�k��,1.9,���k��,5.8,79.3,0,0,0,18.5
2020-03-30T02:45:00+09:00,0.9,�k��,1.9,���k��,5.8,79.2,0,0,0,18.5
2020-03-30T02:46:00+09:00,0.8,�k��,1.9,���k��,5.8,79.3,0,0,0,18.5
2020-03-30T02:47:00+09:00,0.8,�k��,1.9,���k��,5.8,79.2,0,0,0,18.5
2020-03-30T02:48:00+09:00,0.8,�k��,1.7,���k��,5.8,79.1,0,0,0,18.5
2020-03-30T02:49:00+09:00,0.8,�k��,1.6,���k��,5.8,79.3,0,0,0,18.5
2020-03-30T02:50:00+09:00,0.7,�k��,1.1,�k��,5.8,79.8,0,0,0,18.5
2020-03-30T02:51:00+09:00,0.7,�k��,1.1,�k��,5.8,80,0,0,0,18.5
2020-03-30T02:52:00+09:00,0.8,�k��,1.1,�k��,5.8,80.1,0,0,0,18.5
2020-03-30T02:53:00+09:00,0.8,�k��,1.5,�k�k��,5.7,80.5,0,0,0,18.5
2020-03-30T02:54:00+09:00,0.8,�k��,1.5,�k�k��,5.7,80.8,0,0,0,18.5
2020-03-30T02:55:00+09:00,0.9,�k�k��,1.5,�k�k��,5.7,81.1,0,0,0,18.5
2020-03-30T02:56:00+09:00,0.9,�k�k��,1.5,�k�k��,5.7,81.4,0,0,0,18.5
2020-03-30T02:57:00+09:00,0.9,�k�k��,1.5,�k�k��,5.7,81.4,0,0,0,18.5
2020-03-30T02:58:00+09:00,0.9,�k��,1.5,�k�k��,5.7,81,0,0,0,18.5
2020-03-30T02:59:00+09:00,0.9,�k��,1.5,�k�k��,5.7,80.8,0,0,0,18.5
2020-03-30T03:00:00+09:00,0.9,�k��,1.5,�k�k��,5.8,80.1,0,0,0,18.5
2020-03-30T03:01:00+09:00,0.9,�k��,1.5,�k�k��,5.8,79.5,0,0,0,18.5
2020-03-30T03:02:00+09:00,0.9,�k��,1.5,�k�k��,5.8,79.4,0,0,0,18.5
2020-03-30T03:03:00+09:00,0.9,�k��,1.3,���k��,5.8,79.6,0,0,0,18.5
2020-03-30T03:04:00+09:00,0.9,�k��,1.3,���k��,5.8,79.5,0,0,0,18.5
2020-03-30T03:05:00+09:00,0.9,�k��,1.4,�k��,5.7,80.3,0,0,0,18.5
2020-03-30T03:06:00+09:00,1,�k��,1.5,�k�k��,5.7,81.1,0,0,0,18.5
2020-03-30T03:07:00+09:00,1,�k��,1.5,�k�k��,5.7,81.7,0,0,0,18.5
2020-03-30T03:08:00+09:00,1.1,�k��,1.8,�k�k��,5.7,82.1,0,0,0,18.5
2020-03-30T03:09:00+09:00,1.1,�k��,1.8,�k�k��,5.8,82.1,0,0,0,18.5
2020-03-30T03:10:00+09:00,1.1,�k��,1.8,�k�k��,5.7,81.9,0,0,0,18.5
2020-03-30T03:11:00+09:00,1.1,�k��,1.8,�k�k��,5.6,81.5,0,0,0,18.5
2020-03-30T03:12:00+09:00,1.1,�k��,1.8,�k�k��,5.6,81.3,0,0,0,18.5
2020-03-30T03:13:00+09:00,1.1,�k�k��,1.8,�k�k��,5.6,80.9,0,0,0,18.5
2020-03-30T03:14:00+09:00,1.1,�k�k��,1.8,�k�k��,5.7,80.8,0,0,0,18.5
2020-03-30T03:15:00+09:00,1.1,�k�k��,1.8,�k�k��,5.6,81,0,0,0,18.5
2020-03-30T03:16:00+09:00,1.1,�k��,1.8,�k�k��,5.6,81.3,0,0,0,18.5
2020-03-30T03:17:00+09:00,1,�k��,1.8,�k�k��,5.6,82.1,0,0,0,18.5
2020-03-30T03:18:00+09:00,1.1,�k��,1.6,�k�k��,5.6,82.2,0,0,0,18.5
2020-03-30T03:19:00+09:00,1,�k��,1.5,�k��,5.6,82.7,0,0,0,18.5
2020-03-30T03:20:00+09:00,1,�k��,1.5,�k��,5.6,82.8,0,0,0,18.5
2020-03-30T03:21:00+09:00,1,�k��,1.5,�k��,5.6,82.8,0,0,0,18.5
2020-03-30T03:22:00+09:00,1,�k��,1.5,�k��,5.6,83.3,0,0,0,18.5
2020-03-30T03:23:00+09:00,1.1,�k��,1.5,�k��,5.6,83.3,0,0,0,18.5
2020-03-30T03:24:00+09:00,1,�k��,1.6,�k��,5.6,83.2,0,0,0,18.5
2020-03-30T03:25:00+09:00,1,�k��,1.6,�k��,5.7,83.3,0,0,0,18.5
2020-03-30T03:26:00+09:00,1.1,�k��,2.4,���k��,5.7,82.6,0,0,0,18.5
2020-03-30T03:27:00+09:00,1.1,�k��,2.6,���k��,5.7,82,0,0,0,18.5
2020-03-30T03:28:00+09:00,1.1,�k��,2.6,���k��,5.7,81.9,0,0,0,18.5
2020-03-30T03:29:00+09:00,1.2,�k��,2.6,���k��,5.7,82,0,0,0,18.5
2020-03-30T03:30:00+09:00,1.2,�k��,2.6,���k��,5.7,82.1,0,0,0,18.5
2020-03-30T03:31:00+09:00,1.2,�k��,2.6,���k��,5.7,82.2,0,0,0,18.5
2020-03-30T03:32:00+09:00,1.2,�k��,2.6,���k��,5.8,81.6,0,0,0,18.5
2020-03-30T03:33:00+09:00,1.2,�k�k��,2.6,���k��,5.8,81.1,0,0,0,18.5
2020-03-30T03:34:00+09:00,1.1,�k�k��,2.6,���k��,5.8,81.1,0,0,0,18.5
2020-03-30T03:35:00+09:00,1.2,�k��,2.6,���k��,5.7,81.2,0,0,0,18.5
2020-03-30T03:36:00+09:00,1.1,�k��,2.6,���k��,5.7,81.7,0,0,0,18.5
2020-03-30T03:37:00+09:00,1.1,�k��,2.3,���k��,5.6,82,0,0,0,18.5
2020-03-30T03:38:00+09:00,1,�k��,2.3,���k��,5.6,82.5,0,0,0,18.5
2020-03-30T03:39:00+09:00,1,�k��,1.7,��,5.6,82.9,0,0,0,18.5
2020-03-30T03:40:00+09:00,1,�k��,1.6,�k��,5.6,82.6,0,0,0,18.5
2020-03-30T03:41:00+09:00,1.1,�k��,1.6,�k��,5.6,82.4,0,0,0,18.5
2020-03-30T03:42:00+09:00,1.1,�k��,1.6,�k��,5.6,82.4,0,0,0,18.5
2020-03-30T03:43:00+09:00,1.1,�k��,1.6,�k��,5.6,82.5,0,0,0,18.5
2020-03-30T03:44:00+09:00,1.2,���k��,1.6,�k��,5.6,82.2,0,0,0,18.5
2020-03-30T03:45:00+09:00,1.2,���k��,1.7,��,5.7,81.7,0,0,0,18.5
2020-03-30T03:46:00+09:00,1.2,���k��,1.7,��,5.7,81.3,0,0,0,18.5
2020-03-30T03:47:00+09:00,1.2,���k��,1.7,��,5.7,81.4,0,0,0,18.5
2020-03-30T03:48:00+09:00,1.2,���k��,1.7,��,5.7,81.5,0,0,0,18.5
2020-03-30T03:49:00+09:00,1.3,���k��,1.9,���k��,5.7,81.1,0,0,0,18.5
2020-03-30T03:50:00+09:00,1.3,���k��,1.9,���k��,5.7,80.6,0,0,0,18.5
2020-03-30T03:51:00+09:00,1.3,���k��,1.9,���k��,5.7,80,0,0,0,18.5
2020-03-30T03:52:00+09:00,1.3,���k��,1.9,���k��,5.7,79.8,0,0,0,18.5
2020-03-30T03:53:00+09:00,1.3,���k��,1.9,���k��,5.7,79.9,0,0,0,18.5
2020-03-30T03:54:00+09:00,1.3,���k��,1.9,���k��,5.7,79.6,0,0,0,18.5
2020-03-30T03:55:00+09:00,1.3,���k��,1.9,���k��,5.7,79.3,0,0,0,18.5
2020-03-30T03:56:00+09:00,1.4,�k��,2,�k�k��,5.7,80.1,0,0,0,18.5
2020-03-30T03:57:00+09:00,1.4,�k��,2,�k�k��,5.7,80.7,0,0,0,18.5
2020-03-30T03:58:00+09:00,1.4,�k��,2,�k�k��,5.7,80.6,0,0,0,18.5
2020-03-30T03:59:00+09:00,1.4,�k��,2,�k�k��,5.7,80.1,0,0,0,18.5
2020-03-30T04:00:00+09:00,1.4,�k��,2,�k�k��,5.7,79.7,0,0,0,18.5
2020-03-30T04:01:00+09:00,1.4,�k��,2,�k�k��,5.7,80.2,0,0,0,18.5
2020-03-30T04:02:00+09:00,1.4,�k��,2,�k�k��,5.7,79.9,0,0,0,18.5
2020-03-30T04:03:00+09:00,1.4,�k��,2,�k�k��,5.7,79.2,0,0,0,18.5
2020-03-30T04:04:00+09:00,1.4,�k��,2,�k�k��,5.7,79.3,0,0,0,18.5
2020-03-30T04:05:00+09:00,1.5,�k��,2,�k�k��,5.7,79.5,0,0,0,18.5
2020-03-30T04:06:00+09:00,1.4,�k��,1.9,�k��,5.7,79.6,0,0,0,18.5
2020-03-30T04:07:00+09:00,1.3,�k��,1.9,�k��,5.8,78.6,0,0,0,18.5
2020-03-30T04:08:00+09:00,1.3,���k��,1.9,�k��,5.8,78.3,0,0,0,18.5
2020-03-30T04:09:00+09:00,1.3,���k��,1.9,�k��,5.8,78.2,0,0,0,18.5
2020-03-30T04:10:00+09:00,1.2,���k��,1.9,�k��,5.7,78.3,0,0,0,18.5
2020-03-30T04:11:00+09:00,1.2,���k��,1.9,�k��,5.7,78.9,0,0,0,18.5
2020-03-30T04:12:00+09:00,1.2,���k��,1.9,�k��,5.7,78.8,0,0,0,0
2020-03-30T04:13:00+09:00,1.2,���k��,1.9,�k��,5.7,78.7,0,0,0,0
2020-03-30T04:14:00+09:00,1.2,���k��,1.8,���k��,5.7,78.2,0,0,0,0
2020-03-30T04:15:00+09:00,1.2,���k��,1.8,���k��,5.8,77.9,0,0,0,0
2020-03-30T04:16:00+09:00,1.2,�k��,1.8,���k��,5.8,77,0,0,0,0
2020-03-30T04:17:00+09:00,1.2,�k��,1.8,���k��,5.8,77,0,0,0,0
2020-03-30T04:18:00+09:00,1.2,���k��,1.8,���k��,5.8,77.6,0,0,0,0
2020-03-30T04:19:00+09:00,1.2,���k��,1.8,���k��,5.8,77.6,0,0,0,0
2020-03-30T04:20:00+09:00,1.2,���k��,1.8,���k��,5.8,78.1,0,0,0,0
2020-03-30T04:21:00+09:00,1.2,���k��,1.8,���k��,5.8,78,0,0,0,0
2020-03-30T04:22:00+09:00,1.1,���k��,1.8,���k��,5.7,78.9,0,0,0,0
2020-03-30T04:23:00+09:00,1.1,���k��,1.7,���k��,5.7,80.3,0,0,0,0
2020-03-30T04:24:00+09:00,1.1,���k��,1.8,��,5.7,81.6,0,0,0,0
2020-03-30T04:25:00+09:00,1.1,��,1.8,��,5.6,82.2,0,0,0,0
2020-03-30T04:26:00+09:00,1.1,��,1.8,��,5.6,82.8,0,0,0,0
2020-03-30T04:27:00+09:00,1.1,��,1.8,��,5.6,82.8,0,0,0,0
2020-03-30T04:28:00+09:00,1.1,��,1.8,��,5.6,83.1,0,0,0,0
2020-03-30T04:29:00+09:00,1.2,��,1.9,��,5.6,83.2,0,0,0,0
2020-03-30T04:30:00+09:00,1.2,��,1.9,��,5.6,83.1,0,0,0,0
2020-03-30T04:31:00+09:00,1.2,��,1.9,��,5.6,82.8,0,0,0,0
2020-03-30T04:32:00+09:00,1.3,��,1.9,��,5.6,82.3,0,0,0,0
2020-03-30T04:33:00+09:00,1.4,��,2,��,5.6,82.1,0,0,0,0
2020-03-30T04:34:00+09:00,1.5,��,2.6,���k��,5.6,82.3,0,0,0,0
2020-03-30T04:35:00+09:00,1.5,��,2.6,���k��,5.6,82.4,0,0,0,0
2020-03-30T04:36:00+09:00,1.6,��,2.6,���k��,5.6,82.5,0,0,0,0
2020-03-30T04:37:00+09:00,1.7,���k��,2.6,���k��,5.6,81.9,0,0,0,0
2020-03-30T04:38:00+09:00,1.8,���k��,2.6,���k��,5.7,80.7,0,0,0,0
2020-03-30T04:39:00+09:00,1.8,���k��,2.6,���k��,5.7,80.4,0,0,0,0
2020-03-30T04:40:00+09:00,1.9,���k��,3.3,���k��,5.7,80.9,0,0,0,0
2020-03-30T04:41:00+09:00,2,���k��,3.3,���k��,5.7,81.8,0,0,0,0
2020-03-30T04:42:00+09:00,2.2,���k��,4,�k��,5.6,82.7,0,0,0,0
2020-03-30T04:43:00+09:00,2.3,���k��,4.2,���k��,5.6,83,0,0,0,0
2020-03-30T04:44:00+09:00,2.4,���k��,4.2,���k��,5.6,82.8,0,0,0,0
2020-03-30T04:45:00+09:00,2.3,���k��,4.2,���k��,5.6,82.7,0,0,0,0
2020-03-30T04:46:00+09:00,2.4,���k��,4.2,���k��,5.6,82.3,0,0,0,0
2020-03-30T04:47:00+09:00,2.4,���k��,4.2,���k��,5.7,81.8,0,0,0,0
2020-03-30T04:48:00+09:00,2.4,���k��,4.2,���k��,5.7,81.4,0,0,0,0
2020-03-30T04:49:00+09:00,2.3,���k��,4.2,���k��,5.7,81,0,0,0,0
2020-03-30T04:50:00+09:00,2.3,���k��,4.2,���k��,5.7,80.1,0,0,0,0
2020-03-30T04:51:00+09:00,2.3,���k��,4.2,���k��,5.7,80,0,0,0,0
2020-03-30T04:52:00+09:00,2.1,���k��,4.2,���k��,5.7,80.5,0,0,0,0
2020-03-30T04:53:00+09:00,1.9,���k��,3.5,���k��,5.7,80.1,0,0,0,0
2020-03-30T04:54:00+09:00,1.6,���k��,3.1,���k��,5.8,79.7,0,0,0,0
2020-03-30T04:55:00+09:00,1.5,���k��,3.1,���k��,5.7,79.2,0,0,0,0
2020-03-30T04:56:00+09:00,1.4,�k��,3.1,���k��,5.7,79.1,0,0,0,0
2020-03-30T04:57:00+09:00,1.3,�k��,2.5,���k��,5.7,79.4,0,0,0,0
2020-03-30T04:58:00+09:00,1.1,�k��,2.5,���k��,5.7,79.5,0,0,0,0
2020-03-30T04:59:00+09:00,1,�k��,2.4,���k��,5.7,79.6,0,0,0,0
2020-03-30T05:00:00+09:00,0.9,�k��,2.2,�k��,5.6,79.7,0,0,0,0
2020-03-30T05:01:00+09:00,0.8,�k��,1.8,���k��,5.7,80.1,0,0,0,0
2020-03-30T05:02:00+09:00,0.7,�k��,1.2,�k,5.7,80.2,0,0,0,0
2020-03-30T05:03:00+09:00,0.7,�k��,1.2,�k,5.7,79.8,0,0,0,0
2020-03-30T05:04:00+09:00,0.7,�k��,1.2,�k,5.7,79.3,0,0,0,0
2020-03-30T05:05:00+09:00,0.7,�k��,1,�k��,5.7,79.3,0,0,0,0
2020-03-30T05:06:00+09:00,0.6,�k��,1,�k��,5.7,78.8,0,0,0,0
2020-03-30T05:07:00+09:00,0.6,�k��,1,�k��,5.7,78.6,0,0,0,0
2020-03-30T05:08:00+09:00,0.6,���k��,1,�k��,5.7,78.7,0,0,0,0
2020-03-30T05:09:00+09:00,0.5,���k��,0.8,�k��,5.7,79,0,0,0,0
2020-03-30T05:10:00+09:00,0.5,���k��,0.8,�k��,5.7,79,0,0,0,0
2020-03-30T05:11:00+09:00,0.5,���k��,0.9,��,5.7,79.2,0,0,0,0
2020-03-30T05:12:00+09:00,0.6,���k��,1,��,5.7,79,0,0,0,0
2020-03-30T05:13:00+09:00,0.6,���k��,1.1,��,5.7,79,0,0,0,0
2020-03-30T05:14:00+09:00,0.7,���k��,1.4,���k��,5.7,79.5,0,0,0,0
2020-03-30T05:15:00+09:00,0.7,���k��,1.4,���k��,5.7,79.7,0,0,0,0
2020-03-30T05:16:00+09:00,0.7,��,1.4,���k��,5.7,79.4,0,0,0,0
2020-03-30T05:17:00+09:00,0.7,���k��,1.4,���k��,5.7,78.9,0,0,0,0
2020-03-30T05:18:00+09:00,0.7,���k��,1.4,���k��,5.7,79.2,0,0,0,0
2020-03-30T05:19:00+09:00,0.8,���k��,1.4,���k��,5.6,79.8,0,0,0,0
2020-03-30T05:20:00+09:00,0.9,���k��,1.4,���k��,5.6,79.9,0,0,0,0
2020-03-30T05:21:00+09:00,0.9,���k��,1.5,�k��,5.5,80.3,0,0,0,0
2020-03-30T05:22:00+09:00,1,�k��,1.6,�k�k��,5.5,80.6,0,0,0,0
2020-03-30T05:23:00+09:00,1,�k��,1.6,�k�k��,5.5,81.3,0,0,0,0
2020-03-30T05:24:00+09:00,0.9,�k��,1.6,�k�k��,5.6,81.9,0,0,0,0
2020-03-30T05:25:00+09:00,0.8,�k��,1.6,�k�k��,5.6,81.7,0,0,0,0
2020-03-30T05:26:00+09:00,0.9,�k��,1.6,�k�k��,5.5,81.7,0,0,0,0
2020-03-30T05:27:00+09:00,1,�k��,2.4,���k��,5.5,82,0,0,0,0
2020-03-30T05:28:00+09:00,1.2,�k��,2.5,�k��,5.5,82.4,0,0,0,0
2020-03-30T05:29:00+09:00,1.2,�k��,2.5,�k��,5.5,82.9,0,0,0,0
2020-03-30T05:30:00+09:00,1.2,�k��,2.5,�k��,5.4,83.3,0,0,0,0
2020-03-30T05:31:00+09:00,1.1,�k��,2.5,�k��,5.4,83.6,0,0,0,0
2020-03-30T05:32:00+09:00,1.1,�k��,2.5,�k��,5.5,83.8,0,0,0,0
2020-03-30T05:33:00+09:00,1.1,���k��,2.5,�k��,5.5,83.8,0,0,0,0
2020-03-30T05:34:00+09:00,1.1,���k��,2.5,�k��,5.4,83.8,0,0,0,0
2020-03-30T05:35:00+09:00,1.1,���k��,2.5,�k��,5.5,83.9,0,0,0,0
2020-03-30T05:36:00+09:00,1.1,���k��,2.5,�k��,5.4,83.4,0,0,0,0
2020-03-30T05:37:00+09:00,1,���k��,2.5,�k��,5.4,82.4,0,0,0,0
2020-03-30T05:38:00+09:00,0.9,���k��,2,�k��,5.5,82.2,0,0,0,0
2020-03-30T05:39:00+09:00,0.8,���k��,1.5,�k��,5.5,82,0,0,0,0
2020-03-30T05:40:00+09:00,0.8,���k��,1.4,�k�k��,5.6,81.7,0,0,0,0
2020-03-30T05:41:00+09:00,0.7,�k��,1.4,�k�k��,5.6,81.9,0,0,0,0
2020-03-30T05:42:00+09:00,0.8,�k��,1.6,���k��,5.6,81.7,0,0,0,0
2020-03-30T05:43:00+09:00,0.8,�k��,1.6,���k��,5.5,81.6,0,0,0,0
2020-03-30T05:44:00+09:00,0.8,�k��,1.6,���k��,5.5,81.7,0,0,0,0
2020-03-30T05:45:00+09:00,0.9,�k��,1.8,���k��,5.5,81.8,0,0,0,0
2020-03-30T05:46:00+09:00,0.9,���k��,1.8,���k��,5.6,81.6,0,0,0,0
2020-03-30T05:47:00+09:00,0.8,���k��,1.8,���k��,5.6,81.2,0,0,0,0
2020-03-30T05:48:00+09:00,0.8,���k��,1.8,���k��,5.6,81.3,0,0,0,0
2020-03-30T05:49:00+09:00,0.9,���k��,1.8,���k��,5.5,81.6,0,0,0,0
2020-03-30T05:50:00+09:00,0.9,���k��,1.8,���k��,5.5,82,0,0,0,0
2020-03-30T05:51:00+09:00,1,��,1.8,���k��,5.5,82.5,0,0,0,0
2020-03-30T05:52:00+09:00,1,��,1.8,���k��,5.4,83.7,0,0,0,0
2020-03-30T05:53:00+09:00,1,��,1.8,���k��,5.4,84.3,0,0,0,0
2020-03-30T05:54:00+09:00,1,��,2,���k��,5.4,84.3,0,0,0,0
2020-03-30T05:55:00+09:00,1,��,2,���k��,5.5,83.6,0,0,0,0
2020-03-30T05:56:00+09:00,1.1,��,2.6,��,5.5,83.2,0,0,0,0
2020-03-30T05:57:00+09:00,1.2,��,2.6,��,5.5,83.4,0,0,0,0
2020-03-30T05:58:00+09:00,1.3,��,2.6,��,5.5,83.5,0,0,0,0
2020-03-30T05:59:00+09:00,1.4,��,2.7,���k��,5.5,83.4,0,0,0,0
2020-03-30T06:00:00+09:00,1.5,��,2.9,���k��,5.4,83.7,0,0,0,0
2020-03-30T06:01:00+09:00,1.7,��,3.3,���k��,5.4,84,0,0,0,0
2020-03-30T06:02:00+09:00,1.7,���k��,3.3,���k��,5.4,84.4,0,0,0,0
2020-03-30T06:03:00+09:00,1.8,���k��,3.3,���k��,5.3,84.7,0,0,0,0
2020-03-30T06:04:00+09:00,1.8,���k��,3.3,���k��,5.4,85.1,0,0,0,0
2020-03-30T06:05:00+09:00,1.9,���k��,3.3,���k��,5.3,85.3,0,0,0,0
2020-03-30T06:06:00+09:00,1.9,���k��,3.3,���k��,5.4,85.4,0,0,0,0
2020-03-30T06:07:00+09:00,1.9,���k��,3.3,���k��,5.4,85.5,0,0,0,0
2020-03-30T06:08:00+09:00,1.7,���k��,3.3,���k��,5.4,85.4,0,0,0,0
2020-03-30T06:09:00+09:00,1.7,���k��,3.3,���k��,5.4,85.2,0,0,0,0
2020-03-30T06:10:00+09:00,1.6,���k��,3.3,���k��,5.4,85.2,0,0,0,0
2020-03-30T06:11:00+09:00,1.4,���k��,2.8,���k��,5.4,85.2,0,0,0,0
2020-03-30T06:12:00+09:00,1.3,���k��,2.8,���k��,5.4,84.7,0,0,0,0
2020-03-30T06:13:00+09:00,1.2,��,2.8,���k��,5.4,84.3,0,0,0,0
2020-03-30T06:14:00+09:00,1.2,��,2.8,���k��,5.5,84,0,0,0,0
2020-03-30T06:15:00+09:00,1.1,��,2.8,���k��,5.4,83.5,0,0,0,0
2020-03-30T06:16:00+09:00,1,��,2,���k��,5.4,84.1,0,0,0,0
2020-03-30T06:17:00+09:00,1,��,2,���k��,5.4,84.8,0,0,0,0